Flag for U.S.A. Weather past 2 weeks in Albany, New York, U.S.A.

Now
62 °F

Passing clouds.


Feels Like: 62 °F
Forecast: 48 / 71 °F
Wind: 5 mph from North

Location: Albany County Airport

Current Time: Sep 23, 2014 at 9:10:51 PM

Latest Report: Sep 23, 2014 at 7:51 PM


Visibility: 10 mi

Pressure: 30.36 "Hg

Humidity: 62%

Dew point: 49 °F

Location of AlbanyLocation

Historic Weather in Albany — Graph

°F

Albany temperature yesterday

Maximum temperature yesterday: 62 °F (at 12:51 PM)
Minimum temperature yesterday: 48 °F (at 11:51 PM)
Average temperature yesterday: 57 °F

Past Weeks' High & Low Weather Summary

 TemperatureHumidityPressure
High81 °F (Sep 21, 2:51 PM)93% (Sep 13, 2:51 PM)30.40 "Hg (Sep 13, 2:51 PM)
Low41 °F (Sep 23, 5:51 AM)37% (Sep 15, 4:51 PM)29.57 "Hg (Sep 21, 8:51 PM)
Average59 °F70%30.10 "Hg
* Reported Sep 8 7:51 PM — Sep 23 7:51 PM, Albany, Weather by CustomWeather, © 2014

Note: Actual official high and low records may vary slightly from our data, if they occured in-between our weather recording intervals... More about our weather records

Advertising

Albany weather history for previous 24 hours

 ConditionsComfort  
Time TempWeatherWind HumidityBarometerVisibility
7:51 PM
Sep 23
62 °FPassing clouds.5 mph62%30.36 "Hg10 mi
6:51 PM65 °FPartly sunny.8 mph54%30.34 "Hg10 mi
5:51 PM67 °FBroken clouds.8 mph53%30.32 "Hg10 mi
4:51 PM67 °FPartly sunny.9 mph53%30.32 "Hg10 mi
3:51 PM69 °FScattered clouds.9 mph49%30.31 "Hg10 mi
2:51 PM68 °FScattered clouds.10 mph51%30.31 "Hg10 mi
1:51 PM66 °FScattered clouds.10 mph52%30.30 "Hg10 mi
12:51 PM66 °FScattered clouds.10 mph50%30.31 "Hg10 mi
11:51 AM63 °FScattered clouds.10 mph54%30.31 "Hg10 mi
10:51 AM59 °FPassing clouds.6 mph60%30.31 "Hg10 mi
9:51 AM56 °FPassing clouds.6 mph67%30.31 "Hg10 mi
8:51 AM53 °FPassing clouds.7 mph72%30.29 "Hg10 mi
7:51 AM49 °FPassing clouds.6 mph80%30.28 "Hg10 mi
6:51 AM41 °FPassing clouds.3 mph93%30.26 "Hg10 mi
5:51 AM41 °FClear.No wind93%30.25 "Hg10 mi
4:51 AM46 °FClear.No wind86%30.23 "Hg10 mi
3:51 AM45 °FClear.No wind86%30.21 "Hg10 mi
2:51 AM46 °FPassing clouds.3 mph83%30.20 "Hg10 mi
1:51 AM45 °FPassing clouds.3 mph86%30.19 "Hg10 mi
12:51 AM44 °FPassing clouds.No wind85%30.18 "Hg10 mi
11:51 PM
Sep 22
48 °FPassing clouds.No wind77%30.16 "Hg10 mi
10:51 PM50 °FPassing clouds.3 mph71%30.15 "Hg10 mi
9:51 PM50 °FPassing clouds.3 mph68%30.12 "Hg10 mi
Weather by CustomWeather, © 2014

See weather overviewHow to use our weather pages